User: anonymous   Login
Location: Huntsville
(41.2590°N, 111.7678°W)
Time: 06:00:14
(UTC+00:00)
Language:

Transit 4A - Orbit

View from above orbital plane
View from above orbital plane
View from above satellite
View from above satellite

Ground track
Ground track

The orbit data is extracted from the following two-line orbital elements,

1 00116U 61015A   21165.29066176 -.00000039  00000-0  28905-4 0  9994
2 00116  66.8112  43.6469 0069371 117.7728 243.0407 13.91791857 42169
Epoch (UTC): 14 June 2021 06:58:33
Eccentricity: 0.0069371
inclination: 66.8112°
perigee height: 872 km
apogee height: 973 km
right ascension of ascending node: 43.6469°
argument of perigee: 117.7728°
revolutions per day: 13.91791857
mean anomaly at epoch: 243.0407°
orbit number at epoch: 4216

The dashed part of the orbit path shows where the satellite is in the earth's shadow,  

DLR